Overview Statistics Trail Chart Weather Telemetry Raw packets
 

This is the latest recevied weather packets stored in our database for station/object IW1QLH-13. If no packets are shown the sender has not sent any weather packets the latest 10 day(s).

<< 36 37 38 39 40 41 42 >>
Time Temp. Humidity Pressure Rain* Wind** Luminosity Snow
1788013366 28.89° C 81% 1005.7 hPa - - 429 W/m² -
1788012754 30° C 75% 1005.7 hPa - - 643 W/m² -
1788012139 30° C 75% 1005.8 hPa - - 858 W/m² -
1788011527 28.89° C 80% 1005.8 hPa - - 872 W/m² -
1788010916 28.89° C 87% 1006 hPa - - 586 W/m² -
1788010304 28.89° C 84% 1006.2 hPa - - 829 W/m² -
1788009693 28.89° C 72% 1006.2 hPa - - 514 W/m² -
1788009082 28.89° C 75% 1006.2 hPa - - 772 W/m² -
1788008471 28.89° C 73% 1006.3 hPa - - 643 W/m² -
1788007859 28.89° C 75% 1006.5 hPa - - 900 W/m² -
1788007248 30° C 75% 1006.4 hPa - - 929 W/m² -
1788006635 28.89° C 76% 1006.5 hPa - - 1001 W/m² -
1788006021 28.89° C 75% 1006.6 hPa - - 815 W/m² -
1788005418 28.89° C 77% 1006.7 hPa - - 843 W/m² -
1788004793 30.56° C 70% 1006.8 hPa - - 986 W/m² -
1788004181 30° C 84% 1006.7 hPa - - 986 W/m² -
1788003569 30° C 80% 1006.9 hPa - - 972 W/m² -
1788002958 28.89° C 77% 1006.8 hPa - - 972 W/m² -
1788002345 30.56° C 73% 1006.8 hPa - - 972 W/m² -
1788001733 30° C 81% 1006.9 hPa - - 958 W/m² -
1788001121 30° C 77% 1006.9 hPa - - 929 W/m² -
1788000510 30° C 70% 1007.1 hPa - - 900 W/m² -
1787999898 28.89° C 66% 1007 hPa - - 886 W/m² -
1787999288 30° C 64% 1007 hPa - - 872 W/m² -
1787998676 30° C 59% 1007 hPa - - 858 W/m² -

* Rain since midnight (hover to see other rain measurements)
** Current wind speed in m/s (hover to see current wind gust speed)